Simultaneous Nadir Overpasses (SNOs) Predictions

Prediction of SNOs between GOES-17 and METOP-C Satellite Orbit:

Table of predicted SNOs for the next 14.0 days since TLE Epoch: 11/12/2022
Index Date Time (GOES-17) GOES-17 Lat,Lon METOP-C Lat,Lon Distance(km) Time Diff (sec)
1 11/12/2022 18:46:48 -0.03,-137.34 0.44,-139.40 234.67 80
2 11/13/2022 18:28:50 -0.03,-137.34 -0.70,-134.41 334.19 80
3 11/15/2022 06:47:49 0.02,-137.32 -0.36,-138.99 190.91 80
4 11/16/2022 06:24:29 0.02,-137.31 0.73,-133.99 377.66 80
5 11/17/2022 18:43:23 -0.02,-137.31 0.26,-138.56 142.29 80
6 11/18/2022 18:25:23 -0.01,-137.30 -0.83,-133.56 426.06 80
7 11/20/2022 06:44:23 0.01,-137.28 -0.16,-138.16 99.73 80
8 11/21/2022 06:21:04 0.01,-137.27 0.95,-133.16 468.21 80
9 11/22/2022 18:39:56 -0.01,-137.25 0.11,-137.72 53.15 80
10 11/25/2022 06:40:56 0.00,-137.19 -0.03,-137.31 13.06 80
